Ogden, UT

9:37 AM MST on January 19, 2018 (GMT -0700)
Ogden-Hinckley

Weather History for KOGD - January, 2012

Change the Weather History Date:

Saturday, January 28, 2012

  Actual Average Record
Temperature  
Mean Temperature 26 °F -  
Max Temperature 36 °F 38 °F 55 °F (1938)
Min Temperature 16 °F 16 °F -9 °F (1949)
Degree Days  
Heating Degree Days 39    
Moisture  
Dew Point 14 °F    
Average Humidity 65    
Maximum Humidity 77    
Minimum Humidity 41    
Precipitation  
Precipitation 0.00 in - - ()
Sea Level Pressure  
Sea Level Pressure 30.60 in    
Wind  
Wind Speed 6 mph (South)    
Max Wind Speed 10 mph    
Max Gust Speed -    
Visibility 10 miles    
Events      
Averages and records for this station are not official NWS values.
T = Trace of Precipitation, MM = Missing Value Source: NWS Daily Summary

Daily Weather History Graph

Daily Weather History Graph

Search for Another Location

Airport or City:

Trip Planner

Search our weather history database for the weather conditions in past years. The results will help you decide how hot, cold, wet, or windy it might be!

Date:

Astronomy

Jan. 28, 2012 Rise Set
Actual Time 7:43 AM MST 5:39 PM MST
Civil Twilight 7:13 AM MST 6:08 PM MST
Nautical Twilight 6:40 AM MST 6:41 PM MST
Astronomical Twilight 6:07 AM MST 7:14 PM MST
Moon 10:03 AM MST (1/28) 11:35 PM MST (1/28)
Length of Visible Light 10h 55m
Length of Day
9h 56m
Waxing Crescent, 28% of the Moon is Illuminated
Jan 28
Waxing Crescent
Jan 30
First Quarter
Feb 7
Full
Feb 14
Last Quarter
Feb 21
New

Hourly Weather History & Observations

Time (MST) Temp. Windchill Dew Point Humidity Pressure Visibility Wind Dir Wind Speed Gust Speed Precip Events Conditions
12:53 AM 19.9 °F 10.1 °F 12.9 °F 74% 30.57 in 10.0 mi South 8.1 mph - N/A   Clear
1:53 AM 19.0 °F 9.0 °F 12.0 °F 74% 30.57 in 10.0 mi South 8.1 mph - N/A   Clear
2:53 AM 19.0 °F 8.2 °F 12.0 °F 74% 30.58 in 10.0 mi South 9.2 mph - N/A   Clear
3:53 AM 18.0 °F 6.9 °F 10.9 °F 74% 30.58 in 10.0 mi South 9.2 mph - N/A   Clear
4:53 AM 18.0 °F 6.1 °F 10.9 °F 74% 30.58 in 10.0 mi South 10.4 mph - N/A   Clear
5:53 AM 17.1 °F 5.0 °F 10.9 °F 77% 30.60 in 10.0 mi South 10.4 mph - N/A   Clear
6:53 AM 16.0 °F 6.3 °F 10.0 °F 77% 30.63 in 10.0 mi South 6.9 mph - N/A   Clear
7:53 AM 17.1 °F 5.8 °F 10.0 °F 74% 30.65 in 10.0 mi South 9.2 mph - N/A   Clear
8:53 AM 17.6 °F 8.2 °F 10.4 °F 73% 30.53 in 10.0 mi South 6.9 mph - N/A   Clear
9:53 AM 21.9 °F 14.5 °F 12.9 °F 68% 30.65 in 10.0 mi South 5.8 mph - N/A   Clear
10:53 AM 26.1 °F 19.4 °F 14.0 °F 60% 30.66 in 10.0 mi SSE 5.8 mph - N/A   Clear
11:53 AM 28.9 °F 22.8 °F 17.1 °F 61% 30.64 in 10.0 mi South 5.8 mph - N/A   Clear
12:53 PM 30.9 °F - 17.1 °F 57% 30.61 in 10.0 mi Calm Calm - N/A   Clear
1:53 PM 35.1 °F - 17.1 °F 48% 30.60 in 10.0 mi Calm Calm - N/A   Clear
2:53 PM 35.6 °F - 17.6 °F 48% 30.51 in 10.0 mi Calm Calm - N/A   Clear
3:53 PM 36.0 °F - 14.0 °F 41% 30.58 in 10.0 mi Calm Calm - N/A   Clear
4:53 PM 34.0 °F - 17.1 °F 50% 30.58 in 10.0 mi Calm Calm - N/A   Clear
5:53 PM 30.9 °F - 18.0 °F 59% 30.59 in 10.0 mi Calm Calm - N/A   Clear
6:53 PM 28.0 °F - 18.0 °F 66% 30.62 in 10.0 mi Calm Calm - N/A   Clear
7:53 PM 26.1 °F - 17.1 °F 69% 30.62 in 10.0 mi Calm Calm - N/A   Clear
8:53 PM 25.0 °F 17.1 °F 15.1 °F 66% 30.63 in 10.0 mi South 6.9 mph - N/A   Clear
9:53 PM 24.1 °F 15.2 °F 14.0 °F 65% 30.63 in 10.0 mi South 8.1 mph - N/A   Clear
10:53 PM 24.1 °F 15.2 °F 14.0 °F 65% 30.60 in 10.0 mi South 8.1 mph - N/A   Clear
11:53 PM 23.0 °F 14.7 °F 12.9 °F 65% 30.61 in 10.0 mi South 6.9 mph - N/A   Clear